CW4805 Weather Reports


Display with metric or nautical units.
time (UTC)temp
F
wind
direction
speed
MPH
gust
MPH
rain 1hr
in
rain 24hr
in
rain mn
in
humidity
%
barometer
mb
20191024014556 50 299 0.0 0.0 0.00 0.00 0.00 90 1031.6
20191024013102 50 299 0.0 0.0 0.00 0.00 0.00 89 1031.7
20191024011637 50 299 0.0 0.0 0.00 0.00 0.00 88 1031.8
20191024010051 51 299 1.0 4.0 0.00 0.00 0.00 87 1031.8
20191024004640 51 320 0.0 3.0 0.00 0.00 0.00 86 1031.8
20191024003048 52 337 0.0 2.0 0.00 0.00 0.00 85 1031.6
20191024001559 52 337 0.0 2.0 0.00 0.00 0.00 85 1032.0
20191024000128 52 331 0.0 2.0 0.00 0.00 0.00 84 1032.1
20191023234619 52 331 0.0 4.0 0.00 0.00 0.00 84 1032.0
20191023233209 52 323 1.0 5.0 0.00 0.00 0.00 83 1032.1
20191023231545 52 305 1.0 6.0 0.00 0.00 0.00 83 1032.1
20191023230128 52 315 1.0 4.0 0.00 0.00 0.00 83 1032.1
20191023224616 52 340 1.0 8.0 0.00 0.00 0.00 83 1031.9
20191023223126 52 288 1.0 6.0 0.00 0.00 0.00 83 1031.9
20191023221602 52 338 2.0 6.0 0.00 0.00 0.00 82 1032.0
20191023220041 52 319 2.0 7.0 0.00 0.00 0.00 82 1032.1
20191023214554 52 305 2.0 8.0 0.00 0.00 0.00 82 1032.1
20191023213035 53 335 2.0 5.0 0.00 0.00 0.00 80 1032.1
20191023211538 54 275 1.0 3.0 0.00 0.00 0.00 81 1032.1
20191023210129 53 345 0.0 4.0 0.00 0.00 0.00 82 1032.2
20191023204616 53 313 0.0 3.0 0.00 0.00 0.00 82 1032.6
20191023203055 54 333 1.0 4.0 0.00 0.00 0.00 81 1032.6
20191023201551 54 305 2.0 5.0 0.00 0.00 0.00 79 1033.1
20191023200031 54 307 1.0 5.0 0.00 0.00 0.00 80 1033.1
20191023194530 53 316 0.0 3.0 0.00 0.00 0.00 86 1033.1
20191023193041 53 324 1.0 3.0 0.00 0.00 0.00 87 1033.2
20191023191527 52 95 0.0 1.0 0.00 0.00 0.00 88 1033.6
20191023190027 51 95 0.0 0.0 0.00 0.00 0.00 91 1033.8
20191023184518 50 95 0.0 2.0 0.00 0.00 0.00 94 1033.7
20191023183036 49 122 0.0 2.0 0.00 0.00 0.00 96 1033.5
20191023181510 48 122 0.0 1.0 0.00 0.00 0.00 96 1033.5
20191023180232 46 122 0.0 1.0 0.00 0.00 0.00 96 1033.6
20191023174614 46 122 0.0 1.0 0.00 0.00 0.00 96 1033.6
20191023173136 45 122 0.0 1.0 0.00 0.00 0.00 96 1033.6
20191023171622 44 122 0.0 0.0 0.00 0.00 0.00 96 1033.6
20191023170123 43 122 0.0 0.0 0.00 0.00 0.00 96 1033.6
20191023164642 42 122 0.0 0.0 0.00 0.00 0.00 96 1033.6
20191023163125 42 122 0.0 1.0 0.00 0.00 0.00 96 1033.6
20191023161737 42 131 0.0 2.0 0.00 0.00 0.00 96 1033.6
20191023160021 41 24 0.0 0.0 0.00 0.00 0.00 96 1033.6
20191023154515 40 24 0.0 0.0 0.00 0.00 0.00 95 1033.5
20191023153049 40 24 0.0 1.0 0.00 0.00 0.00 96 1033.5
20191023151523 39 24 0.0 0.0 0.00 0.00 0.00 95 1033.3
20191023150010 39 24 0.0 0.0 0.00 0.00 0.00 95 1033.0
20191023144508 39 24 0.0 0.0 0.00 0.00 0.00 95 1033.0
20191023143134 39 24 0.0 0.0 0.00 0.00 0.00 95 1032.7
20191023141728 39 24 0.0 0.0 0.00 0.00 0.00 95 1032.7
20191023140312 39 24 0.0 0.0 0.00 0.00 0.00 95 1032.7
20191023134637 39 24 0.0 0.0 0.00 0.00 0.00 95 1032.7
20191023133137 39 24 0.0 0.0 0.00 0.00 0.00 95 1032.5
20191023131636 40 24 0.0 0.0 0.00 0.00 0.00 95 1032.5
20191023130111 40 24 0.0 0.0 0.00 0.00 0.00 95 1032.4
20191023124634 40 24 0.0 0.0 0.00 0.00 0.00 95 1032.0
20191023123245 40 24 0.0 0.0 0.00 0.00 0.00 95 1031.8
20191023121652 40 24 0.0 0.0 0.00 0.00 0.00 95 1032.0
20191023120144 40 24 0.0 0.0 0.00 0.00 0.00 95 1031.9
20191023114649 40 24 0.0 0.0 0.00 0.00 0.00 95 1031.9
20191023113142 40 24 0.0 0.0 0.00 0.00 0.00 95 1031.9
20191023111634 40 24 0.0 0.0 0.00 0.00 0.00 95 1031.8
20191023110149 40 24 0.0 0.0 0.00 0.00 0.00 95 1031.9
20191023104723 40 24 0.0 0.0 0.00 0.00 0.00 95 1031.8
20191023103136 39 24 0.0 0.0 0.00 0.00 0.00 95 1031.4
20191023101613 39 24 0.0 0.0 0.00 0.00 0.00 94 1031.4
20191023100154 40 24 0.0 0.0 0.00 0.00 0.00 95 1031.3
20191023094708 40 24 0.0 0.0 0.00 0.00 0.00 94 1031.3
20191023093118 40 24 0.0 0.0 0.00 0.00 0.00 94 1031.1
20191023091627 41 24 0.0 0.0 0.00 0.00 0.00 94 1031.0
20191023090102 41 24 0.0 0.0 0.00 0.00 0.00 95 1031.0
20191023084556 41 24 0.0 0.0 0.00 0.00 0.00 94 1031.1
20191023083115 42 24 0.0 0.0 0.00 0.00 0.00 95 1031.2
20191023081609 42 24 0.0 0.0 0.00 0.00 0.00 94 1031.3
20191023080105 42 24 0.0 0.0 0.00 0.00 0.00 94 1031.3
20191023074559 42 24 0.0 0.0 0.00 0.00 0.00 94 1031.3
20191023073059 43 24 0.0 0.0 0.00 0.00 0.00 94 1031.3
20191023071605 43 24 0.0 0.0 0.00 0.00 0.00 94 1031.3
20191023070037 43 24 0.0 0.0 0.00 0.00 0.00 94 1031.2
20191023064534 43 24 0.0 0.0 0.00 0.00 0.00 94 1030.9
20191023063111 44 24 0.0 0.0 0.00 0.00 0.00 94 1030.8
20191023061602 44 24 0.0 0.0 0.00 0.00 0.00 94 1030.9
20191023060016 44 24 0.0 0.0 0.00 0.00 0.00 94 1030.9
20191023054749 45 24 0.0 0.0 0.00 0.00 0.00 93 1030.8
20191023053130 46 24 0.0 0.0 0.00 0.00 0.00 93 1030.7
20191023051714 46 24 0.0 0.0 0.00 0.00 0.00 93 1030.7
20191023050217 46 24 0.0 0.0 0.00 0.00 0.00 93 1030.9
20191023044606 47 24 0.0 0.0 0.00 0.00 0.00 93 1030.7
20191023043128 47 24 0.0 1.0 0.00 0.00 0.00 92 1030.4
20191023041553 47 345 0.0 1.0 0.00 0.00 0.00 93 1030.5
20191023040109 47 345 1.0 5.0 0.00 0.00 0.00 93 1030.3
20191023034539 48 355 0.0 0.0 0.00 0.00 0.00 92 1030.3
20191023033029 48 350 0.0 0.0 0.00 0.00 0.00 91 1030.4
20191023031547 49 350 0.0 0.0 0.00 0.00 0.00 90 1030.3
20191023030031 50 350 0.0 1.0 0.00 0.00 0.00 89 1030.2
20191023024510 50 350 0.0 1.0 0.00 0.00 0.00 89 1030.4
20191023023002 51 350 0.0 0.0 0.00 0.00 0.00 89 1030.4
20191023021715 51 350 0.0 0.0 0.00 0.00 0.00 88 1030.4
20191023020141 52 350 0.0 0.0 0.00 0.00 0.00 87 1030.3